TimeCST,TemperatureF,Dew PointF,Humidity,Sea Level PressureIn,VisibilityMPH,Wind Direction,Wind SpeedMPH,Gust SpeedMPH,PrecipitationIn,Events,Conditions,WindDirDegrees,DateUTC
12:14 AM,-9.4,-16.6,71,30.46,10.0,North,6.9,-,N/A,,Clear,360,2013-02-20 06:14:00
12:33 AM,-11.2,-18.4,70,30.47,10.0,North,3.5,-,N/A,,Clear,360,2013-02-20 06:33:00
12:54 AM,-9.4,-18.4,65,30.48,10.0,North,5.8,-,N/A,,Clear,350,2013-02-20 06:54:00
1:14 AM,-11.2,-18.4,70,30.47,10.0,NNE,6.9,-,N/A,,Clear,20,2013-02-20 07:14:00
1:33 AM,-11.2,-18.4,70,30.47,10.0,North,5.8,-,N/A,,Clear,360,2013-02-20 07:33:00
1:54 AM,-11.2,-18.4,70,30.47,10.0,NNE,4.6,-,N/A,,Clear,20,2013-02-20 07:54:00
2:14 AM,-11.2,-18.4,70,30.48,10.0,NNE,4.6,-,N/A,,Clear,20,2013-02-20 08:14:00
2:33 AM,-11.2,-18.4,70,30.48,10.0,North,4.6,-,N/A,,Clear,10,2013-02-20 08:33:00
2:54 AM,-13.0,-18.4,77,30.48,10.0,NNE,5.8,-,N/A,,Clear,20,2013-02-20 08:54:00
3:33 AM,-13.0,-18.4,77,30.49,10.0,NNE,5.8,-,N/A,,Clear,20,2013-02-20 09:33:00
3:54 AM,-13.0,-20.2,70,30.49,10.0,NNE,5.8,-,N/A,,Clear,30,2013-02-20 09:54:00
4:14 AM,-13.0,-20.2,70,30.49,10.0,NE,6.9,-,N/A,,Clear,50,2013-02-20 10:14:00
4:34 AM,-13.0,-20.2,70,30.49,10.0,NE,8.1,-,N/A,,Clear,40,2013-02-20 10:34:00
4:54 AM,-14.8,-20.2,77,30.49,10.0,NE,8.1,-,N/A,,Clear,40,2013-02-20 10:54:00
5:14 AM,-14.8,-20.2,77,30.49,10.0,NE,6.9,-,N/A,,Clear,50,2013-02-20 11:14:00
5:34 AM,-14.8,-20.2,77,30.49,10.0,NE,6.9,-,N/A,,Clear,50,2013-02-20 11:34:00
5:54 AM,-14.8,-20.2,77,30.50,10.0,NE,8.1,-,N/A,,Clear,40,2013-02-20 11:54:00
6:14 AM,-14.8,-22.0,70,30.51,10.0,NE,6.9,-,N/A,,Clear,50,2013-02-20 12:14:00
6:34 AM,-14.8,-22.0,70,30.50,10.0,NE,8.1,-,N/A,,Clear,50,2013-02-20 12:34:00
6:54 AM,-14.8,-22.0,70,30.50,10.0,NE,9.2,-,N/A,,Clear,50,2013-02-20 12:54:00
7:14 AM,-16.6,-22.0,76,30.50,10.0,NE,6.9,-,N/A,,Clear,50,2013-02-20 13:14:00
7:34 AM,-16.6,-23.8,70,30.50,10.0,NE,8.1,-,N/A,,Clear,50,2013-02-20 13:34:00
7:54 AM,-16.6,-23.8,70,30.50,10.0,ENE,9.2,-,N/A,,Clear,60,2013-02-20 13:54:00
8:14 AM,-16.6,-23.8,70,30.51,10.0,NE,8.1,-,N/A,,Clear,50,2013-02-20 14:14:00
8:34 AM,-16.6,-23.8,70,30.51,10.0,NE,4.6,-,N/A,,Clear,40,2013-02-20 14:34:00
8:54 AM,-14.8,-22.0,70,30.51,10.0,NE,6.9,-,N/A,,Clear,50,2013-02-20 14:54:00
9:14 AM,-14.8,-23.8,64,30.51,10.0,ENE,9.2,-,N/A,,Clear,60,2013-02-20 15:14:00
9:34 AM,-14.8,-23.8,64,30.51,10.0,ENE,9.2,-,N/A,,Clear,60,2013-02-20 15:34:00
9:54 AM,-14.8,-22.0,70,30.50,10.0,ENE,9.2,-,N/A,,Clear,60,2013-02-20 15:54:00
10:14 AM,-13.0,-20.2,70,30.50,10.0,ENE,10.4,-,N/A,,Clear,60,2013-02-20 16:14:00
10:34 AM,-11.2,-20.2,64,30.50,10.0,NE,6.9,-,N/A,,Clear,50,2013-02-20 16:34:00
10:54 AM,-11.2,-20.2,64,30.51,10.0,NNE,4.6,-,N/A,,Clear,30,2013-02-20 16:54:00
11:14 AM,-9.4,-18.4,65,30.50,10.0,NE,8.1,-,N/A,,Clear,40,2013-02-20 17:14:00
11:34 AM,-9.4,-18.4,65,30.50,10.0,NE,6.9,-,N/A,,Clear,40,2013-02-20 17:34:00
11:54 AM,-9.4,-18.4,65,30.49,10.0,NE,8.1,-,N/A,,Clear,40,2013-02-20 17:54:00
12:14 PM,-7.6,-18.4,59,30.49,10.0,NE,8.1,-,N/A,,Clear,40,2013-02-20 18:14:00
12:34 PM,-7.6,-18.4,59,30.50,10.0,NNE,8.1,-,N/A,,Clear,30,2013-02-20 18:34:00
12:54 PM,-5.8,-16.6,60,30.49,10.0,NE,8.1,-,N/A,,Clear,40,2013-02-20 18:54:00
1:14 PM,-5.8,-16.6,60,30.48,10.0,NE,8.1,-,N/A,,Clear,40,2013-02-20 19:14:00
1:34 PM,-4.0,-16.6,55,30.48,10.0,NE,6.9,-,N/A,,Clear,40,2013-02-20 19:34:00
1:54 PM,-2.2,-16.6,50,30.48,10.0,NNE,8.1,-,N/A,,Clear,30,2013-02-20 19:54:00
2:14 PM,-2.2,-16.6,50,30.49,10.0,NE,8.1,-,N/A,,Clear,40,2013-02-20 20:14:00
2:34 PM,-0.4,-14.8,51,30.48,10.0,NE,8.1,-,N/A,,Clear,40,2013-02-20 20:34:00
2:54 PM,-0.4,-14.8,51,30.48,10.0,NE,9.2,-,N/A,,Clear,50,2013-02-20 20:54:00
3:14 PM,-0.4,-14.8,51,30.48,10.0,NE,9.2,-,N/A,,Clear,50,2013-02-20 21:14:00
3:34 PM,-0.4,-14.8,51,30.47,10.0,NE,9.2,-,N/A,,Clear,40,2013-02-20 21:34:00
3:54 PM,-0.4,-13.0,55,30.47,10.0,NE,11.5,-,N/A,,Clear,50,2013-02-20 21:54:00
4:14 PM,1.4,-11.2,56,30.47,10.0,NE,12.7,-,N/A,,Clear,50,2013-02-20 22:14:00
4:34 PM,1.4,-11.2,56,30.47,10.0,ENE,9.2,-,N/A,,Clear,60,2013-02-20 22:34:00
4:54 PM,-0.4,-11.2,60,30.46,10.0,NE,9.2,-,N/A,,Clear,50,2013-02-20 22:54:00
5:14 PM,-0.4,-9.4,66,30.46,10.0,ENE,10.4,-,N/A,,Clear,60,2013-02-20 23:14:00
5:34 PM,-0.4,-9.4,66,30.45,10.0,ENE,10.4,-,N/A,,Clear,60,2013-02-20 23:34:00
5:54 PM,-2.2,-9.4,71,30.45,10.0,ENE,9.2,-,N/A,,Clear,60,2013-02-20 23:54:00
6:14 PM,-2.2,-11.2,66,30.44,10.0,ENE,8.1,-,N/A,,Clear,60,2013-02-21 00:14:00
6:34 PM,-2.2,-11.2,66,30.44,10.0,NE,5.8,-,N/A,,Clear,50,2013-02-21 00:34:00
6:54 PM,-2.2,-11.2,66,30.44,10.0,ENE,5.8,-,N/A,,Clear,60,2013-02-21 00:54:00
7:14 PM,-2.2,-11.2,66,30.43,10.0,ENE,8.1,-,N/A,,Clear,60,2013-02-21 01:14:00
7:34 PM,-2.2,-11.2,66,30.43,10.0,ENE,8.1,-,N/A,,Clear,60,2013-02-21 01:34:00
7:54 PM,-0.4,-9.4,66,30.42,10.0,ENE,9.2,-,N/A,,Clear,70,2013-02-21 01:54:00
8:14 PM,-2.2,-11.2,66,30.42,10.0,ENE,6.9,-,N/A,,Clear,70,2013-02-21 02:14:00
8:34 PM,-4.0,-11.2,71,30.42,10.0,ENE,5.8,-,N/A,,Clear,70,2013-02-21 02:34:00
8:54 PM,-5.8,-11.2,77,30.42,10.0,NE,4.6,-,N/A,,Clear,50,2013-02-21 02:54:00
9:14 PM,-5.8,-11.2,77,30.43,10.0,Calm,Calm,-,N/A,,Clear,0,2013-02-21 03:14:00
9:34 PM,-5.8,-13.0,71,30.42,10.0,ENE,4.6,-,N/A,,Clear,70,2013-02-21 03:34:00
9:54 PM,-5.8,-11.2,77,30.42,10.0,ENE,5.8,-,N/A,,Clear,70,2013-02-21 03:54:00
10:34 PM,-5.8,-13.0,71,30.40,10.0,East,10.4,-,N/A,,Clear,80,2013-02-21 04:34:00
10:54 PM,-4.0,-13.0,65,30.40,10.0,East,9.2,-,N/A,,Clear,90,2013-02-21 04:54:00
11:14 PM,-2.2,-11.2,66,30.40,10.0,East,6.9,-,N/A,,Clear,80,2013-02-21 05:14:00
11:34 PM,-4.0,-11.2,71,30.41,10.0,East,4.6,-,N/A,,Clear,100,2013-02-21 05:34:00
11:54 PM,-2.2,-11.2,66,30.42,10.0,Calm,Calm,-,N/A,,Clear,0,2013-02-21 05:54:00